Weather History for Carmi, IL

Change the Weather History Date:

Thursday, November 21, 2013

  Actual Average (KEVV) Record (KEVV)
Temperature  
Mean Temperature 52 °F 44 °F  
Max Temperature 57 °F 54 °F 74 °F (1990)
Min Temperature 46 °F 35 °F 13 °F (1964)
Degree Days  
Heating Degree Days 14 21  
Month to date heating degree days 351  
Since 1 July heating degree days 654  
Cooling Degree Days 0 0  
Month to date cooling degree days 0  
Year to date cooling degree days 1395  
Growing Degree Days 2 (Base 50)    
Moisture  
Dew Point 46 °F    
Average Humidity 82    
Maximum Humidity 96    
Minimum Humidity 66    
Precipitation  
Precipitation 0.10 in 0.16 in 1.32 in (1942)
Month to date precipitation 2.98  
Year to date precipitation 40.20  
Snow  
Snow 0.00 in 0.00 in 0.30 in (1972)
Month to date snowfall 0.0  
Since 1 July snowfall 0.2  
Since 1 September snowfall 0.2  
Snow Depth -    
Sea Level Pressure  
Sea Level Pressure 30.19 in    
Wind  
Wind Speed 6 mph (SSE)    
Max Wind Speed 14 mph    
Max Gust Speed -    
Visibility 7 miles    
Events Rain    
T = Trace of Precipitation, MM = Missing Value Source: NWS Daily Summary

Daily Weather History Graph

Daily Weather History Graph

Search for Another Location

Airport:

Trip Planner

Search our weather history database for the weather conditions in past years. The results will help you decide how hot, cold, wet, or windy it might be!

Date:

Astronomy

Nov. 21, 2013 Rise Set
Actual Time 6:40 AM CST 4:36 PM CST
Civil Twilight 6:11 AM CST 5:05 PM CST
Nautical Twilight 5:39 AM CST 5:37 PM CST
Astronomical Twilight 5:07 AM CST 6:08 PM CST
Moon 8:12 PM CST (11/21) 9:46 AM CST (11/21)
Length of Visible Light 10h 53m
Length of Day
9h 56m
Waning Gibbous, 85% of the Moon is Illuminated
Nov 21
Waning Gibbous
Nov 25
Last Quarter
Dec 2
New
Dec 9
First Quarter
Dec 17
Full

Hourly Weather History & Observations

Time (CST) Temp. Dew Point Humidity Pressure Visibility Wind Dir Wind Speed Gust Speed Precip Events Conditions
12:15 AM 47.3 °F 38.8 °F 72% 30.17 in 10.0 mi South 5.8 mph - 0.01 in   Overcast
12:35 AM 47.5 °F 38.8 °F 72% 30.17 in 10.0 mi SSE 5.8 mph - 0.01 in   Mostly Cloudy
12:55 AM 46.9 °F 39.2 °F 74% 30.18 in 10.0 mi South 3.5 mph - 0.01 in   Mostly Cloudy
1:15 AM 46.8 °F 39.4 °F 75% 30.18 in 10.0 mi SSE 8.1 mph - N/A   Scattered Clouds
1:35 AM 48.2 °F 38.3 °F 69% 30.19 in 10.0 mi SSE 6.9 mph - N/A   Mostly Cloudy
1:55 AM 47.5 °F 39.0 °F 72% 30.20 in 10.0 mi South 4.6 mph - N/A   Mostly Cloudy
2:15 AM 47.5 °F 39.2 °F 73% 30.19 in 10.0 mi SSE 8.1 mph - N/A   Scattered Clouds
2:35 AM 49.1 °F 38.7 °F 67% 30.17 in 10.0 mi SE 9.2 mph - N/A   Mostly Cloudy
2:55 AM 48.6 °F 39.0 °F 70% 30.16 in 10.0 mi SE 10.4 mph - N/A   Mostly Cloudy
3:35 AM 49.6 °F 38.7 °F 66% 30.16 in 10.0 mi South 9.2 mph - N/A   Overcast
3:55 AM 49.1 °F 38.8 °F 68% 30.17 in 10.0 mi SSE 9.2 mph - N/A   Overcast
4:15 AM 49.1 °F 39.2 °F 69% 30.18 in 10.0 mi SSE 9.2 mph - N/A   Overcast
4:35 AM 49.3 °F 39.4 °F 69% 30.16 in 10.0 mi SSE 10.4 mph - N/A   Overcast
4:55 AM 49.1 °F 39.6 °F 70% 30.17 in 10.0 mi SSE 11.5 mph - N/A   Overcast
5:15 AM 49.3 °F 39.7 °F 70% 30.17 in 10.0 mi SSE 10.4 mph - N/A   Overcast
5:35 AM 48.7 °F 40.6 °F 74% 30.17 in 10.0 mi SSE 11.5 mph - N/A   Overcast
5:55 AM 49.1 °F 40.6 °F 73% 30.17 in 10.0 mi SSE 13.8 mph - N/A Rain Light Rain
6:15 AM 49.5 °F 40.5 °F 71% 30.19 in 10.0 mi SSE 11.5 mph - N/A   Overcast
6:35 AM 49.3 °F 40.5 °F 72% 30.20 in 10.0 mi South 5.8 mph - N/A   Mostly Cloudy
6:55 AM 48.9 °F 41.0 °F 74% 30.22 in 10.0 mi South 5.8 mph - N/A   Mostly Cloudy
7:15 AM 48.6 °F 41.2 °F 76% 30.22 in 10.0 mi SSE 4.6 mph - N/A   Scattered Clouds
7:35 AM 49.1 °F 41.7 °F 76% 30.23 in 10.0 mi SSE 6.9 mph - N/A   Scattered Clouds
7:55 AM 50.9 °F 41.9 °F 71% 30.22 in 10.0 mi SSE 8.1 mph - 0.01 in   Mostly Cloudy
8:15 AM 51.4 °F 41.9 °F 70% 30.23 in 10.0 mi SSE 6.9 mph - N/A   Overcast
8:35 AM 51.8 °F 42.3 °F 70% 30.23 in 10.0 mi SSE 8.1 mph - N/A   Overcast
8:55 AM 51.8 °F 43.0 °F 72% 30.24 in 10.0 mi SSE 6.9 mph - N/A   Overcast
9:15 AM 52.0 °F 43.7 °F 73% 30.23 in 10.0 mi SSE 8.1 mph - N/A   Overcast
9:35 AM 52.3 °F 43.7 °F 72% 30.23 in 10.0 mi SSE 5.8 mph - N/A   Overcast
9:55 AM 52.7 °F 44.4 °F 73% 30.22 in 10.0 mi SSE 5.8 mph - N/A   Overcast
10:15 AM 52.9 °F 45.0 °F 74% 30.22 in 10.0 mi SSE 8.1 mph - N/A Rain Light Rain
10:35 AM 53.2 °F 45.5 °F 75% 30.22 in 10.0 mi SSE 6.9 mph - N/A   Overcast
10:55 AM 53.8 °F 46.2 °F 76% 30.20 in 10.0 mi SSE 5.8 mph - N/A   Overcast
11:15 AM 54.9 °F 46.6 °F 74% 30.20 in 10.0 mi South 8.1 mph - N/A   Overcast
11:35 AM 55.4 °F 47.3 °F 74% 30.19 in 10.0 mi South 5.8 mph - N/A   Overcast
11:55 AM 55.9 °F 47.7 °F 74% 30.17 in 10.0 mi SSE 5.8 mph - N/A   Overcast
12:15 PM 56.7 °F 48.4 °F 74% 30.18 in 10.0 mi South 4.6 mph - N/A   Overcast
12:35 PM 56.8 °F 48.6 °F 74% 30.17 in 10.0 mi South 6.9 mph - N/A   Overcast
12:55 PM 57.2 °F 48.6 °F 73% 30.18 in 10.0 mi SSW 5.8 mph - N/A   Overcast
1:15 PM 56.1 °F 49.3 °F 78% 30.18 in 7.0 mi South 4.6 mph - N/A Rain Rain
1:35 PM 55.6 °F 50.2 °F 82% 30.19 in 7.0 mi SSW 5.8 mph - N/A Rain Rain
2:15 PM 54.1 °F 51.3 °F 90% 30.19 in 3.0 mi SSW 3.5 mph - N/A Rain Heavy Rain
2:35 PM 53.6 °F 51.3 °F 92% 30.18 in 2.0 mi Calm Calm - N/A Rain Heavy Rain
2:55 PM 53.1 °F 51.4 °F 94% 30.19 in 2.0 mi SSE 4.6 mph - N/A Rain Heavy Rain
3:15 PM 52.9 °F 51.3 °F 94% 30.19 in 2.0 mi SSE 4.6 mph - N/A Rain Rain
3:35 PM 52.9 °F 51.4 °F 95% 30.19 in 2.0 mi SE 3.5 mph - N/A Rain Heavy Rain
3:55 PM 52.7 °F 51.6 °F 96% 30.16 in 2.5 mi ESE 6.9 mph - N/A Rain Rain
4:15 PM 52.7 °F 51.4 °F 95% 30.18 in 4.0 mi ESE 3.5 mph - N/A Rain Rain
4:35 PM 52.3 °F 51.1 °F 95% 30.19 in 4.0 mi Calm Calm - N/A Rain Rain
4:55 PM 52.2 °F 50.9 °F 95% 30.16 in 3.0 mi SE 6.9 mph - N/A Rain Light Rain
5:15 PM 52.7 °F 51.3 °F 95% 30.16 in 5.0 mi SE 8.1 mph - N/A Rain Light Rain
5:35 PM 52.7 °F 51.3 °F 95% 30.17 in 5.0 mi SE 5.8 mph - 0.01 in Rain Rain
5:55 PM 52.5 °F 51.1 °F 95% 30.17 in 4.0 mi SE 6.9 mph - 0.01 in   Overcast
6:15 PM 52.7 °F 51.4 °F 95% 30.16 in 5.0 mi SE 6.9 mph - N/A   Overcast
6:35 PM 52.9 °F 51.4 °F 95% 30.17 in 5.0 mi SE 3.5 mph - 0.01 in   Overcast
6:55 PM 52.7 °F 51.3 °F 95% 30.18 in 5.0 mi SE 4.6 mph - 0.01 in   Overcast
7:15 PM 52.7 °F 51.3 °F 95% 30.18 in 4.0 mi SSE 3.5 mph - N/A   Overcast
7:35 PM 52.9 °F 51.4 °F 95% 30.17 in 5.0 mi SE 4.6 mph - 0.01 in   Overcast
7:55 PM 53.2 °F 51.8 °F 95% 30.18 in 5.0 mi SSE 3.5 mph - 0.01 in   Overcast
8:15 PM 52.9 °F 51.4 °F 95% 30.18 in 4.0 mi Calm Calm - 0.01 in   Overcast
8:35 PM 53.1 °F 51.6 °F 95% 30.18 in 5.0 mi Calm Calm - 0.01 in   Overcast
8:55 PM 52.7 °F 51.3 °F 95% 30.19 in 4.0 mi Calm Calm - 0.01 in   Overcast
9:15 PM 52.9 °F 51.4 °F 95% 30.19 in 5.0 mi Calm Calm - N/A   Overcast
9:35 PM 53.1 °F 51.6 °F 95% 30.19 in 5.0 mi Calm Calm - 0.01 in   Overcast
9:55 PM 52.7 °F 51.3 °F 95% 30.19 in 4.0 mi Calm Calm - 0.01 in   Overcast
10:15 PM 52.7 °F 51.3 °F 95% 30.19 in 3.0 mi Calm Calm - 0.01 in   Overcast
10:35 PM 52.7 °F 51.4 °F 95% 30.19 in 3.0 mi Calm Calm - 0.01 in   Overcast
10:55 PM 52.9 °F 51.8 °F 96% 30.19 in 3.0 mi Calm Calm - 0.02 in   Overcast
11:15 PM 53.2 °F 51.8 °F 95% 30.19 in 1.8 mi Calm Calm - N/A   Overcast
11:35 PM 52.5 °F 51.1 °F 95% 30.19 in 1.5 mi Calm Calm - N/A   Overcast
11:55 PM 52.7 °F 51.4 °F 95% 30.19 in 1.2 mi Calm Calm - 0.01 in   Overcast